Home > Weather > Feira de Santana > Past weeks

Flag for Brazil Past Weather in Feira de Santana, Bahia, Brazil — Yesterday and Last 2 Weeks

Now
77 °F

Passing clouds.


Feels Like: 79 °F
Forecast: 66 / 77 °F
Wind: 14 mph from Southeast

Location: Salvador Aeroporto

Current Time: Jul 31, 2016 at 2:38:35 AM

Latest Report: Jul 31, 2016 at 2:00 AM


Visibility: N/A

Pressure: 30.09 "Hg

Humidity: 69%

Dew Point: 66 °F

Location of Feira de SantanaLocation

Past Weather in Feira de Santana — Graph

°F

Feira de Santana Temperature Yesterday

Maximum temperature yesterday: 81 °F (at 11:00 AM)
Minimum temperature yesterday: 73 °F (at 5:00 AM)
Average temperature yesterday: 78 °F

High & Low Weather Summary for the Past Weeks

 TemperatureHumidityPressure
High88 °F (Jul 27, 10:00 AM)100% (Jul 25, 6:00 AM)30.15 "Hg (Jul 25, 6:00 AM)
Low36 °F (Jul 25, 6:00 AM)20% (Jul 23, 5:00 PM)29.92 "Hg (Jul 17, 2:00 PM)
Average78 °F71%30.06 "Hg
* Reported Jul 16 1:00 AM — Jul 31 1:00 AM, Feira de Santana, Weather by CustomWeather, © 2016

Note: Actual official high and low records may vary slightly from our data, if they occured in-between our weather recording intervals... More about our weather records

Advertising

Feira de Santana Weather History for the Previous 24 Hours

Scroll right to see more
 ConditionsComfort  
Time TempWeatherWind HumidityBarometerVisibility
1:00 AM
Sun, Jul 31
77 °FPassing clouds.13 mph69%30.09 "HgN/A
12:00 AM77 °FPassing clouds.15 mph69%30.12 "HgN/A
11:00 PM
Sat, Jul 30
77 °FPassing clouds.16 mph65%30.12 "HgN/A
10:00 PM77 °FPassing clouds.15 mph69%30.12 "HgN/A
9:00 PM77 °FPassing clouds.14 mph69%30.12 "HgN/A
8:00 PM77 °FPassing clouds.14 mph69%30.09 "HgN/A
7:00 PM77 °FPassing clouds.13 mph65%30.09 "HgN/A
6:00 PM79 °FPassing clouds.13 mph61%30.09 "HgN/A
5:00 PM79 °FScattered clouds.14 mph65%30.09 "HgN/A
4:00 PM79 °FScattered clouds.14 mph65%30.07 "HgN/A
3:00 PM81 °FScattered clouds.14 mph62%30.07 "HgN/A
2:00 PM81 °FScattered clouds.16 mph58%30.09 "HgN/A
1:00 PM81 °FScattered clouds.16 mph62%30.09 "HgN/A
12:00 PM81 °FScattered showers. Scattered clouds.14 mph66%30.12 "Hg5 mi
11:00 AM81 °FScattered clouds.13 mph62%30.15 "HgN/A
10:00 AM79 °FScattered clouds.14 mph65%30.15 "HgN/A
9:00 AM79 °FScattered clouds.17 mph65%30.15 "HgN/A
8:00 AM77 °FScattered clouds.16 mph69%30.12 "HgN/A
7:00 AM75 °FBroken clouds.15 mph74%30.09 "HgN/A
6:00 AM75 °FScattered showers. Partly sunny.14 mph74%N/AN/A
5:00 AM73 °FPassing clouds.20 mph78%30.07 "HgN/A
4:00 AM75 °FPassing clouds.12 mph74%30.07 "HgN/A
3:00 AM75 °FPassing clouds.10 mph69%30.07 "HgN/A
2:00 AM77 °FScattered showers. Passing clouds.14 mph69%N/AN/A
Weather by CustomWeather, © 2016

See weather overviewHow to use our weather pages